Wind_Speed
3 4 5 5 6 7 7 8 9 9 10 11 12 12 13 13 14 14 14 14 14 15 15 16 16 17 17 17 18 18 18 18 18 19 19 19 19 19 20 20 20 20 20
3 4 5 6 7 8 9 9 10 11 12 13 13 14 14 15 15 15 15 15 15 16 16 17 17 18 18 19 19 19 20 20 20 20 21 21 21 21 22 22 22 22 22
5 6 7 8 9 10 10 11 12 13 14 15 15 15 15 15 16 16 16 16 16 16 16 17 18 18 19 19 20 20 21 21 22 22 22 22 23 23 24 24 24 25 25
7 9 9 10 11 11 12 13 14 15 15 16 16 16 16 16 16 16 16 17 17 17 17 18 18 19 19 20 21 21 22 22 23 24 24 25 25 26 26 27 27 27 28
9 10 11 11 12 13 14 14 15 15 15 15 15 15 15 16 16 16 17 17 17 17 18 18 19 19 20 21 22 23 23 24 24 25 26 27 27 28 29 29 30 30 30
11 12 13 13 13 14 14 15 15 15 15 15 15 15 15 15 15 16 16 16 17 17 18 18 19 19 20 21 22 23 24 25 25 26 27 27 28 29 30 31 32 32 32
13 13 14 13 14 14 15 15 14 14 14 14 14 14 14 15 15 15 15 16 16 17 17 18 19 20 20 21 22 23 24 25 26 26 27 28 29 30 31 32 33 33 34
13 13 14 14 14 14 14 14 13 13 13 13 13 13 14 14 14 15 15 16 17 17 18 19 20 21 22 23 24 24 25 26 26 27 28 29 30 30 31 32 34 35 36
14 14 14 14 14 14 14 13 13 13 13 13 13 13 14 14 15 16 16 17 18 19 20 21 21 22 23 24 25 26 27 27 28 29 30 30 31 32 32 33 34 35 36
15 14 15 15 14 14 14 13 13 13 13 13 13 14 14 15 16 17 18 19 20 20 21 22 23 24 25 26 27 28 29 29 30 31 32 32 33 34 34 35 36 37 37
15 15 14 15 14 14 14 13 13 13 13 13 14 14 15 16 17 18 19 20 21 22 22 23 24 25 26 27 28 30 31 31 32 33 34 35 36 36 37 38 38 39 40
16 16 15 14 15 14 14 14 14 14 14 14 15 15 16 17 18 19 20 21 22 23 24 25 26 27 28 29 30 31 32 33 34 35 37 37 38 39 40 40 41 42 42
16 16 16 15 15 15 15 15 15 16 16 16 17 17 18 19 20 21 22 23 24 25 27 28 29 30 31 31 32 33 34 35 36 37 39 40 41 42 43 43 44 45 45
17 18 17 17 17 17 17 17 18 18 19 19 19 20 21 22 23 24 25 26 27 28 30 31 32 33 34 35 35 36 37 38 38 40 41 42 43 44 45 46 47 47 48
19 19 19 19 19 19 19 20 20 20 21 22 22 23 24 25 26 27 28 30 31 32 33 34 35 36 37 38 39 40 40 41 41 42 43 44 45 46 47 48 49 50 51
21 21 21 22 22 22 22 23 23 23 24 25 26 26 27 29 30 31 32 33 34 35 36 37 38 40 41 42 43 44 44 45 45 45 46 47 48 48 49 50 51 52 52
24 24 24 25 25 25 26 26 26 27 27 28 29 30 31 32 33 34 35 36 37 39 40 41 42 44 45 46 47 47 48 48 49 49 49 49 50 51 52 53 53 54 55
26 26 26 27 27 28 29 29 30 30 30 31 32 34 35 36 37 38 39 40 41 42 44 45 46 47 48 49 50 50 51 51 52 52 53 53 53 53 54 54 55 56 57
28 28 28 29 30 31 32 32 33 33 34 35 36 37 38 40 41 41 42 44 45 46 47 49 50 51 52 52 53 53 54 54 55 55 56 56 56 56 56 56 57 57 58
30 30 31 32 33 34 34 35 35 36 37 38 39 40 41 43 44 45 46 47 49 50 51 52 53 54 55 55 55 55 56 57 58 58 58 58 58 58 58 59 59 59 60
31 32 33 34 35 37 37 37 38 39 40 40 41 42 44 45 47 49 50 51 52 53 54 55 57 57 58 58 58 58 59 59 60 59 59 59 59 60 60 60 60 61 62
32 34 35 36 37 38 39 40 40 41 42 43 44 45 47 49 50 52 53 54 55 56 57 58 59 60 60 61 61 62 62 61 60 59 59 58 59 60 60 61 61 62 62
32 34 35 37 38 39 41 42 42 43 44 45 47 48 50 52 53 54 55 57 58 59 60 60 61 62 63 63 63 63 63 62 61 59 58 58 59 60 60 61 61 62 63
33 34 35 37 39 40 42 43 44 45 46 47 49 51 52 54 55 57 58 59 60 61 62 62 63 64 65 65 64 63 63 63 62 61 59 59 59 60 61 61 62 62 63
33 35 36 38 40 41 43 45 46 47 49 51 52 53 54 56 57 59 60 61 62 63 64 65 65 66 65 65 64 63 62 62 62 62 61 60 60 60 61 62 62 62 63
34 36 38 40 42 44 45 47 48 50 51 53 54 56 57 58 59 60 61 62 63 64 65 66 66 66 65 64 63 63 63 62 62 62 61 61 61 61 62 62 62 63 64
Wind_Direction
262 266 267 269 273 275 275 275 277 279 280 280 281 282 282 283 283 283 282 282 282 281 280 279 278 277 277 276 276 274 273 271 270 268 267 266 265 263 261 260 259 257 256
267 270 272 274 276 278 279 280 282 283 284 284 285 285 285 285 285 285 285 285 284 282 281 280 279 277 276 275 275 275 273 272 271 270 268 267 266 265 263 261 260 259 258
273 276 277 278 279 280 281 283 284 285 286 286 287 287 287 287 287 287 287 286 285 284 283 282 280 279 277 276 275 275 274 273 271 269 268 266 265 264 264 263 262 261 260
277 279 279 280 280 281 283 284 285 286 286 287 288 288 289 289 289 289 289 288 287 286 285 283 282 280 279 278 277 276 275 274 272 271 269 267 266 265 264 263 262 261 261
279 279 279 279 280 282 284 285 286 286 287 287 288 290 291 291 291 291 291 291 290 289 288 286 285 283 282 281 280 279 277 276 274 273 271 270 268 267 265 264 263 262 261
280 280 279 279 280 282 284 285 286 286 288 289 290 292 293 294 294 294 294 293 293 292 291 290 288 287 285 284 283 282 280 279 277 276 274 272 271 269 267 266 264 263 261
282 280 280 279 281 283 284 285 286 287 289 290 292 294 296 297 298 298 297 297 297 296 294 293 292 290 289 288 287 285 283 282 281 279 277 275 274 272 270 269 267 266 264
281 280 279 280 281 283 283 285 286 287 289 291 293 295 298 299 300 300 300 300 299 298 297 296 295 294 293 291 290 289 287 285 284 283 281 279 277 275 273 271 270 268 267
279 278 278 279 281 282 282 284 286 288 290 292 295 297 299 301 302 302 302 302 301 300 299 298 297 296 295 293 292 290 289 287 286 285 283 282 280 278 277 275 273 271 270
278 277 278 279 280 281 282 283 286 288 291 293 296 298 300 302 303 304 304 303 303 302 301 300 299 298 296 295 293 291 290 288 287 286 284 283 282 280 279 277 275 274 272
279 279 277 278 280 281 282 284 286 289 292 295 297 300 302 304 305 305 306 306 305 304 304 303 302 301 299 298 296 293 291 290 288 286 285 284 282 281 279 278 277 275 274
277 277 276 276 278 280 282 285 287 290 293 296 298 300 302 304 305 306 307 307 306 306 305 305 304 303 302 301 299 297 294 292 289 287 285 283 282 281 279 278 277 275 274
275 275 275 276 277 279 281 284 287 290 292 295 297 299 300 301 302 304 304 305 305 305 305 305 305 304 303 302 301 299 297 295 292 288 286 284 282 280 279 277 276 275 274
273 274 275 276 276 278 280 282 285 288 290 292 294 295 297 298 299 300 301 302 302 303 303 303 304 304 303 303 302 300 298 296 293 290 287 284 282 280 279 277 276 275 274
271 273 275 275 276 277 278 280 282 284 287 289 290 292 294 295 296 297 297 298 298 299 299 300 300 301 302 301 301 300 299 297 295 292 289 286 283 281 279 277 276 274 273
271 272 274 275 275 277 277 279 280 282 284 286 288 289 291 292 293 294 295 295 296 296 297 297 298 298 299 299 299 299 299 298 296 294 292 288 285 282 280 278 276 275 274
271 272 273 274 275 276 277 279 280 281 283 284 285 287 289 290 291 293 293 294 295 295 296 296 296 296 296 297 297 298 298 297 296 295 293 291 287 284 282 279 277 276 275
271 272 272 273 274 275 276 278 279 280 282 283 284 286 288 289 290 291 292 293 294 295 295 295 295 295 296 296 296 296 296 296 295 295 294 292 289 286 284 281 279 277 276
272 272 272 272 273 274 276 278 279 280 281 282 283 285 286 288 289 290 291 292 293 294 294 294 294 294 295 295 295 294 295 295 294 294 294 292 290 287 285 283 281 279 278
273 272 272 272 273 275 277 278 278 279 280 281 283 284 285 286 288 289 290 291 292 293 293 293 294 294 294 293 293 293 293 293 293 294 293 292 290 288 286 285 283 281 280
276 275 274 274 275 276 278 278 279 280 281 282 283 284 284 285 287 288 290 290 291 292 292 293 293 293 293 293 293 293 293 293 293 293 293 292 290 289 288 286 284 283 282
279 279 278 277 277 278 279 279 280 281 281 282 283 283 284 285 286 288 289 290 291 291 291 292 292 292 293 292 293 292 292 291 292 292 292 291 290 289 288 286 285 284 283
283 282 282 281 280 280 280 281 281 281 282 283 282 282 283 285 286 287 289 289 290 290 291 291 292 292 292 292 292 292 292 291 291 290 289 289 288 288 287 286 286 285 285
286 285 283 283 282 282 282 282 282 283 283 282 282 283 284 285 286 287 288 289 289 290 290 291 291 292 292 293 292 292 292 292 292 291 290 289 288 288 287 287 287 286 286
288 286 285 284 283 283 283 283 283 284 283 283 283 284 284 285 286 287 288 288 289 289 290 291 291 292 293 293 293 293 293 292 293 292 291 291 289 289 288 287 288 288 288
288 287 286 285 285 284 284 284 284 284 284 284 284 284 285 285 286 287 287 288 288 289 290 291 292 292 293 293 293 293 293 294 294 293 292 291 290 290 289 288 288 289 289
Height
5866 5866 5867 5867 5868 5868 5868 5868 5868 5868 5868 5868 5868 5868 5868 5868 5868 5868 5868 5868 5867 5867 5867 5867 5867 5867 5867 5868 5868 5869 5869 5870 5870 5871 5872 5872 5873 5874 5874 5875 5876 5877 5878
5865 5865 5866 5866 5866 5866 5866 5866 5866 5866 5866 5866 5866 5865 5865 5865 5865 5865 5865 5865 5865 5865 5864 5864 5864 5864 5864 5865 5865 5865 5866 5866 5867 5867 5868 5868 5869 5870 5870 5871 5872 5873 5874
5864 5864 5864 5864 5864 5864 5864 5864 5864 5864 5864 5863 5863 5863 5862 5862 5862 5862 5862 5861 5861 5861 5861 5861 5861 5861 5861 5861 5861 5861 5862 5862 5863 5863 5864 5865 5865 5865 5866 5867 5868 5869 5870
5862 5862 5862 5862 5862 5862 5862 5862 5862 5861 5861 5860 5860 5860 5859 5859 5859 5858 5858 5858 5858 5858 5858 5858 5858 5857 5857 5857 5857 5858 5858 5858 5858 5859 5859 5860 5860 5861 5861 5862 5863 5864 5865
5861 5860 5860 5860 5860 5860 5860 5859 5859 5858 5858 5858 5857 5857 5856 5856 5855 5855 5855 5854 5854 5854 5854 5854 5854 5854 5853 5853 5853 5853 5853 5853 5854 5854 5854 5855 5855 5856 5856 5856 5857 5858 5859
5859 5858 5858 5858 5857 5857 5857 5856 5856 5856 5855 5855 5854 5854 5853 5853 5852 5852 5851 5851 5851 5850 5850 5850 5850 5850 5849 5849 5849 5848 5848 5848 5848 5849 5849 5849 5849 5850 5850 5850 5851 5852 5853
5856 5856 5855 5855 5855 5854 5854 5853 5853 5853 5852 5852 5851 5851 5850 5850 5849 5849 5848 5848 5847 5847 5846 5846 5846 5845 5845 5845 5844 5844 5843 5843 5843 5843 5843 5843 5843 5843 5843 5844 5844 5845 5846
5853 5853 5852 5852 5852 5851 5851 5850 5850 5850 5849 5849 5848 5848 5847 5847 5846 5845 5845 5844 5844 5843 5843 5842 5842 5841 5840 5840 5839 5839 5838 5838 5838 5837 5837 5837 5837 5837 5837 5837 5837 5837 5838
5851 5851 5850 5850 5849 5849 5848 5848 5847 5847 5847 5846 5845 5845 5844 5844 5843 5842 5842 5841 5840 5839 5839 5838 5837 5836 5836 5835 5834 5834 5833 5832 5832 5831 5831 5830 5830 5830 5830 5830 5830 5830 5830
5848 5848 5847 5847 5847 5846 5846 5845 5845 5844 5844 5843 5842 5842 5841 5840 5840 5839 5838 5837 5836 5836 5835 5834 5833 5832 5831 5830 5829 5828 5827 5826 5826 5825 5824 5823 5823 5822 5822 5822 5822 5822 5822
5845 5845 5845 5844 5844 5843 5843 5842 5842 5841 5841 5840 5839 5838 5838 5837 5836 5835 5834 5833 5832 5831 5830 5829 5828 5827 5825 5824 5823 5822 5821 5820 5819 5818 5817 5816 5815 5815 5814 5814 5813 5813 5813
5842 5842 5841 5841 5841 5840 5840 5839 5839 5838 5837 5837 5836 5835 5834 5833 5832 5831 5830 5829 5828 5827 5825 5824 5823 5821 5820 5818 5817 5815 5814 5813 5811 5810 5809 5808 5807 5806 5805 5805 5804 5804 5804
5839 5838 5838 5838 5838 5837 5837 5836 5835 5835 5834 5833 5832 5831 5830 5829 5828 5827 5826 5825 5823 5822 5820 5819 5817 5816 5814 5812 5811 5809 5807 5805 5804 5802 5800 5799 5798 5797 5796 5795 5794 5794 5793
5835 5835 5834 5834 5834 5833 5833 5832 5831 5831 5830 5829 5828 5827 5826 5825 5824 5822 5821 5820 5818 5816 5815 5813 5811 5809 5807 5806 5804 5802 5800 5798 5795 5793 5791 5790 5788 5787 5785 5784 5783 5783 5782
5831 5831 5831 5830 5830 5829 5829 5828 5827 5826 5825 5824 5823 5822 5821 5820 5818 5817 5816 5814 5812 5810 5808 5806 5804 5802 5800 5798 5796 5793 5791 5789 5786 5784 5782 5779 5778 5776 5774 5773 5772 5771 5770
5827 5827 5826 5825 5825 5824 5824 5823 5822 5821 5820 5819 5818 5816 5815 5814 5812 5811 5809 5807 5805 5803 5801 5799 5796 5794 5792 5789 5786 5784 5781 5778 5776 5773 5771 5768 5766 5764 5762 5760 5759 5758 5757
5822 5822 5821 5820 5820 5819 5818 5817 5816 5815 5814 5813 5811 5810 5808 5807 5805 5803 5801 5799 5797 5795 5792 5790 5787 5785 5782 5779 5776 5773 5770 5767 5764 5762 5759 5756 5753 5751 5749 5747 5745 5744 5743
5817 5817 5816 5815 5814 5813 5812 5811 5810 5809 5807 5806 5804 5802 5800 5798 5797 5795 5793 5790 5788 5785 5783 5780 5777 5774 5771 5768 5765 5762 5759 5755 5752 5749 5746 5743 5740 5737 5735 5732 5730 5729 5727
5811 5811 5810 5809 5807 5806 5805 5804 5803 5801 5800 5798 5796 5794 5792 5789 5787 5785 5783 5780 5778 5775 5772 5769 5766 5763 5760 5756 5753 5750 5746 5743 5739 5736 5732 5728 5725 5722 5720 5717 5715 5713 5711
5805 5804 5803 5802 5800 5799 5798 5797 5795 5793 5792 5790 5788 5786 5783 5780 5778 5775 5773 5770 5767 5764 5760 5757 5753 5750 5746 5743 5740 5737 5733 5729 5725 5722 5717 5713 5710 5706 5703 5701 5698 5696 5694
5798 5797 5796 5795 5793 5791 5790 5789 5787 5785 5783 5782 5779 5776 5773 5770 5767 5764 5762 5758 5755 5752 5748 5744 5740 5736 5733 5728 5725 5722 5719 5715 5711 5707 5702 5698 5694 5690 5687 5683 5681 5678 5676
5791 5790 5788 5787 5786 5784 5782 5780 5779 5777 5775 5772 5769 5766 5763 5760 5756 5753 5749 5746 5742 5739 5735 5731 5726 5722 5719 5714 5710 5706 5703 5702 5697 5693 5688 5683 5678 5674 5670 5667 5664 5661 5658
5784 5782 5781 5779 5778 5776 5773 5771 5769 5767 5765 5762 5759 5755 5752 5748 5745 5741 5737 5733 5729 5725 5721 5716 5712 5708 5703 5700 5696 5691 5686 5683 5680 5678 5674 5669 5664 5659 5654 5650 5647 5643 5640
5776 5774 5772 5770 5768 5766 5764 5761 5759 5756 5754 5751 5747 5744 5740 5736 5732 5728 5724 5719 5715 5711 5707 5702 5697 5692 5688 5684 5680 5676 5671 5666 5662 5659 5657 5652 5647 5643 5638 5633 5629 5625 5622
5768 5766 5764 5761 5759 5756 5754 5751 5748 5745 5742 5738 5735 5731 5728 5724 5719 5714 5710 5705 5700 5696 5692 5687 5682 5677 5673 5668 5663 5659 5655 5650 5646 5641 5639 5635 5630 5626 5621 5616 5612 5608 5604
5760 5757 5754 5751 5749 5746 5743 5740 5736 5733 5729 5725 5722 5718 5714 5710 5706 5701 5695 5690 5685 5681 5676 5671 5666 5661 5657 5652 5647 5642 5638 5634 5630 5625 5621 5617 5613 5609 5603 5599 5594 5589 5585